331  
AXUS43 KGID 200402  
MISGRI  
 
GID CWA HOURLY WEATHER ROUNDUP  
NATIONAL WEATHER SERVICE HASTINGS NE  
1100 PM CDT FRI OCT 19 2018  
 
NOTE: "FAIR" INDICATES FEW OR NO CLOUDS BELOW 12,000 FEET WITH NO  
SIGNIFICANT WEATHER AND/OR OBSTRUCTIONS TO VISIBILITY.  
   
..SOUTH CENTRAL NEBRASKA
 
 
 
CITY SKY/WX TMP DP RH WIND PRES REMARKS  
GRAND ISLAND CLEAR 45 34 65 W7 30.24R  
KEARNEY CLEAR 44 33 65 NW9 30.26R  
HASTINGS CLEAR 45 35 68 NW7 30.25R  
ORD CLEAR 38 32 79 NW6 30.23R WCI 33  
YORK CLEAR 50 32 50 NW10 30.22R  
AURORA CLEAR 45 32 60 NW7 30.23R  
LEXINGTON CLEAR 42 34 74 NW5 30.28R  
HOLDREGE CLEAR 45 34 66 NW7 30.27R  
HEBRON CLEAR 50 36 57 NW6 30.22R  
   
..NEBRASKA PANHANDLE
 
 
 
CITY SKY/WX TMP DP RH WIND PRES REMARKS  
CHADRON CLEAR 37 31 78 SW3 30.32R  
ALLIANCE CLEAR 35 29 78 W5 30.32R WCI 31  
SCOTTSBLUFF CLEAR 39 31 72 N7 30.34R WCI 34  
SIDNEY CLEAR 34 28 79 NW6 30.36R HAZE WCI 29  
   
..WESTERN AND NORTH CENTRAL NEBRASKA
 
 
 
CITY SKY/WX TMP DP RH WIND PRES REMARKS  
VALENTINE CLEAR 42 30 62 W9 30.26R  
AINSWORTH CLEAR 42 30 62 W7 30.25R  
ONEILL CLEAR 48 30 49 NW9 30.22R  
BROKEN BOW CLEAR 40 32 73 CALM 30.25R  
IMPERIAL CLEAR 39 28 64 SW5 30.32R  
NORTH PLATTE CLEAR 34 29 82 N6 30.30R WCI 29  
MCCOOK CLEAR 42 32 67 W5 30.30R  
   
..EASTERN NEBRASKA
 
 
 
CITY SKY/WX TMP DP RH WIND PRES REMARKS  
NORFOLK CLEAR 45 33 63 W8 30.18R  
SO SIOUX CITY CLEAR 50 33 52 NW9 30.14R  
TEKAMAH CLEAR 51 35 54 NW9 30.15R  
COLUMBUS CLEAR 46 34 62 W6 30.21R  
ALBION PTCLDY 47 32 56 N7 30.22R  
OMAHA EPPLEY CLEAR 52 34 50 NW8 30.15R  
OFFUTT AFB CLEAR 50 37 60 NW9 30.15R  
MILLARD CLEAR 56 37 48 NW7 30.15R  
LINCOLN CLEAR 54 34 46 N12 30.20R  
NEBRASKA CITY CLEAR 54 31 41 NW10 30.16R  
BEATRICE CLEAR 49 39 67 NW8 30.20R  
FALLS CITY CLEAR 50 38 63 NW8 30.15R  
   
..NORTHERN KANSAS
 
 
 
CITY SKY/WX TMP DP RH WIND PRES REMARKS  
GOODLAND CLEAR 40 31 70 NW3 30.33R  
HILL CITY CLEAR 45 35 68 N10 30.29R  
NORTON CLEAR 45 34 65 W9 30.28R  
PHILLIPSBURG CLEAR 46 35 65 W9 30.27R  
SMITH CENTER CLEAR 46 35 65 N9 30.26R  
HAYS CLEAR 49 38 65 N10 30.26R  
RUSSELL CLEAR 49 40 71 NW7 30.23R  
CONCORDIA CLEAR 53 37 54 NW9 30.22R  
SALINA CLEAR 52 43 71 N7 30.21R  
TOPEKA CLEAR 56 43 61 N10 30.14R  
 
CLICK HERE TO GO TO PREVIOUS BULLETINS.

The Nexlab NE Page
The Nexlab KS Page Main Text Page